Flag for Canada Weather past 2 weeks in Caledon, Ontario, Canada

Now
18 °F

Cloudy.


Feels Like: 2 °F
Forecast: N/A
Wind: 18 mph from Northwest

Location: Borden

Current Time: Mar 27, 2015 at 6:11:19 PM

Latest Report: Mar 27, 2015 at 5:03 PM


Visibility: 9 mi

Pressure: 29.96 "Hg

Humidity: 68%

Dew point: 9 °F

Location of CaledonLocation

Historic Weather in Caledon — Graph

°F

Caledon temperature yesterday

Maximum temperature yesterday: 41 °F (at 3:00 PM)
Minimum temperature yesterday: 34 °F (at 8:00 PM)
Average temperature yesterday: 38 °F

Past Weeks' High & Low Weather Summary

 TemperatureHumidityPressure
High55 °F (Mar 16, 3:00 PM)100% (Mar 14, 4:00 AM)30.66 "Hg (Mar 14, 4:00 AM)
Low3 °F (Mar 24, 2:00 AM)21% (Mar 20, 4:00 PM)29.68 "Hg (Mar 17, 1:03 AM)
Average29 °F70%30.09 "Hg
* Reported Mar 12 5:00 PM — Mar 27 5:00 PM, Caledon, Weather by CustomWeather, © 2015

Note: Actual official high and low records may vary slightly from our data, if they occured in-between our weather recording intervals... More about our weather records

Advertising

Caledon weather history for previous 24 hours

 ConditionsComfort  
Time TempWeatherWind HumidityBarometerVisibility
5:00 PM
Fri, Mar 27
19 °FMostly cloudy.17 mph63%30.00 "Hg9 mi
4:00 PM19 °FLight snow. Overcast.17 mph73%29.99 "Hg5 mi
3:00 PM18 °FLight snow. Mostly cloudy.14 mph73%29.98 "Hg8 mi
2:47 PM18 °FLight snow. Overcast.14 mph73%29.95 "Hg9 mi
2:00 PM18 °FMostly cloudy.18 mph73%29.98 "Hg9 mi
1:46 PM19 °FMostly cloudy.15 mph63%29.95 "Hg9 mi
1:00 PM19 °FMostly cloudy.12 mph68%29.98 "Hg9 mi
12:00 PM18 °FMostly cloudy.15 mph73%29.97 "Hg9 mi
11:00 AM18 °FOvercast.14 mph73%29.96 "Hg9 mi
10:00 AM18 °FLight snow. Overcast.14 mph79%29.94 "Hg4 mi
9:00 AM19 °FLight snow. Overcast.10 mph79%29.92 "Hg8 mi
8:00 AM19 °FLight snow. Overcast.15 mph86%29.92 "Hg6 mi
7:54 AM21 °FLight snow. Overcast.14 mph80%29.88 "Hg8 mi
7:00 AM21 °FOvercast.13 mph86%29.91 "Hg9 mi
6:00 AM25 °FOvercast.10 mph86%29.88 "Hg9 mi
5:00 AM25 °FOvercast.13 mph86%29.86 "Hg9 mi
4:00 AM27 °FLight snow. Low clouds.14 mph93%29.84 "Hg9 mi
3:00 AM32 °FOvercast.8 mph80%29.82 "Hg9 mi
2:00 AM32 °FMostly cloudy.12 mph80%29.83 "Hg9 mi
1:00 AM32 °FOvercast.9 mph87%29.81 "Hg9 mi
12:51 AM32 °FMostly cloudy.6 mph87%29.79 "Hg9 mi
12:00 AM34 °FOvercast.6 mph81%29.82 "Hg9 mi
10:46 PM
Thu, Mar 26
34 °FPassing clouds.3 mph81%29.80 "Hg9 mi
10:00 PM34 °FOvercast.5 mph81%29.84 "Hg9 mi
9:00 PM34 °FOvercast.3 mph87%29.83 "Hg9 mi
8:00 PM34 °FOvercast.No wind87%29.82 "Hg9 mi
7:02 PM36 °FMostly cloudy.5 mph81%29.79 "Hg9 mi
6:03 PM39 °FMostly cloudy.8 mph70%29.77 "Hg9 mi
Weather by CustomWeather, © 2015

See weather overviewHow to use our weather pages